FW4716 Arlington WA US current weather conditions

sailwx.info

Wind from 355 at 1 knots gusting 6

Air temperature 14.4° C
Dewpoint 10.1° C

Last reported at 2020-Jun-05 17:45 UTC.
Time now 2020-Jun-05 18:53 UTC

Location: N 48°16' W 121°54'.
View on Google Maps.

See reports from other nearby stations

  
Tides and Currents Weather Stations Pressure Air Temp Water Temp Dewpoint Dewpoint Depression Visibility Wind Speed Wind Dir Waves Ship Positions
date/time (UTC)wind fromknots sea level pressurealtimeterstation pressurevisibilityair tempwater tempwave heightnotes
2020-Jun-05 17:45 355 1 gusting 6 14.4
2020-Jun-05 17:30 323 2 gusting 6 14.4
2020-Jun-05 17:17 315 1 gusting 8 13.9
2020-Jun-05 17:02 309 4 gusting 6 13.9
2020-Jun-05 16:46 300 2 gusting 5 13.3
2020-Jun-05 16:31 313 1 gusting 6 12.8
2020-Jun-05 16:16 321 2 gusting 4 12.2
2020-Jun-05 16:01 310 0 gusting 3 11.7
2020-Jun-05 15:46 342 0 gusting 1 11.7
2020-Jun-05 15:30 346 11.1
2020-Jun-05 15:16 251 1 gusting 3 10.0
2020-Jun-05 15:01 260 1 gusting 2 9.4
2020-Jun-05 14:45 281 0 gusting 3 8.9
2020-Jun-05 14:30 252 1 gusting 3 8.9
2020-Jun-05 14:15 268 8.3
2020-Jun-05 14:00 268 0 gusting 3 7.8
2020-Jun-05 13:45 269 1 gusting 2 7.2
2020-Jun-05 13:30 098 7.2
2020-Jun-05 13:15 098 6.7
2020-Jun-05 13:00 076 0 gusting 1 6.7
2020-Jun-05 12:45 076 6.1
2020-Jun-05 12:30 076 6.1
2020-Jun-05 12:15 076 6.1
2020-Jun-05 12:00 076 6.1
2020-Jun-05 11:45 076 0 gusting 1 6.7
2020-Jun-05 11:30 076 6.7
2020-Jun-05 11:15 077 6.7
2020-Jun-05 11:00 077 6.7
2020-Jun-05 10:45 077 6.7
2020-Jun-05 10:30 078 0 gusting 2 6.7
2020-Jun-05 10:15 076 6.7
2020-Jun-05 10:00 076 1 gusting 2 6.7
2020-Jun-05 09:47 105 7.2
2020-Jun-05 09:31 105 7.2
2020-Jun-05 09:16 105 7.2
2020-Jun-05 09:01 105 7.8
2020-Jun-05 08:46 105 7.8
2020-Jun-05 08:31 105 0 gusting 2 7.8
2020-Jun-05 08:16 189 8.3
2020-Jun-05 08:01 188 8.3
2020-Jun-05 07:46 098 8.3
2020-Jun-05 07:31 098 0 gusting 2 8.3
2020-Jun-05 07:17 112 0 gusting 1 8.9
2020-Jun-05 07:00 112 0 gusting 1 8.9
2020-Jun-05 06:46 112 8.9
2020-Jun-05 06:31 112 9.4
2020-Jun-05 06:16 112 9.4
2020-Jun-05 06:01 112 9.4
2020-Jun-05 05:46 112 10.0
2020-Jun-05 05:31 134 0 gusting 1 10.6
2020-Jun-05 05:16 199 0 gusting 1 11.1
2020-Jun-05 05:00 217 11.7
2020-Jun-05 04:45 217 0 gusting 1 11.7
2020-Jun-05 04:31 235 12.2
2020-Jun-05 04:16 195 0 gusting 1 12.8
2020-Jun-05 04:01 197 0 gusting 1 13.9
2020-Jun-05 03:45 197 14.4
2020-Jun-05 03:31 297 14.4
2020-Jun-05 03:15 198 0 gusting 1 15.6
2020-Jun-05 03:00 277 0 gusting 1 16.1
2020-Jun-05 02:45 278 0 gusting 1 17.2
2020-Jun-05 02:30 278 17.8
2020-Jun-05 02:15 282 1 gusting 5 18.3
2020-Jun-05 02:00 291 1 gusting 3 18.9
2020-Jun-05 01:45 190 19.4
2020-Jun-05 01:31 190 0 gusting 1 19.4
2020-Jun-05 01:15 260 0 gusting 3 18.9
2020-Jun-05 01:00 024 0 gusting 2 18.3
2020-Jun-05 00:45 263 1 gusting 3 17.8
2020-Jun-05 00:30 278 1 gusting 4 16.7
2020-Jun-05 00:15 263 1 gusting 4 17.2
2020-Jun-05 00:02 263 2 gusting 5 16.7
2020-Jun-04 23:47 273 3 gusting 6 16.7
2020-Jun-04 23:31 251 2 gusting 6 16.7
2020-Jun-04 23:16 255 1 gusting 3 16.7
2020-Jun-04 23:01 269 16.7
2020-Jun-04 22:46 308 0 gusting 5 16.1
2020-Jun-04 22:31 252 0 gusting 6 16.7
2020-Jun-04 22:16 005 1 gusting 6 16.7
2020-Jun-04 22:01 304 2 gusting 7 16.1
2020-Jun-04 21:46 301 3 gusting 7 16.1
2020-Jun-04 21:30 290 2 gusting 5 15.6
2020-Jun-04 21:15 311 0 gusting 6 15.6
2020-Jun-04 21:01 288 3 gusting 6 15.6
2020-Jun-04 20:46 298 3 gusting 6 16.1
2020-Jun-04 20:31 314 1 gusting 6 16.1
2020-Jun-04 20:16 314 2 gusting 6 15.6
2020-Jun-04 20:00 020 2 gusting 5 15.6
2020-Jun-04 19:46 299 1 gusting 3 15.0
2020-Jun-04 19:30 313 15.0
2020-Jun-04 19:15 253 1 gusting 3 15.0
2020-Jun-04 19:01 030 0 gusting 4 15.0
2020-Jun-04 18:45 336 1 gusting 4 14.4
2020-Jun-04 18:30 348 2 gusting 6 15.0
2020-Jun-04 18:16 340 0 gusting 3 14.4
2020-Jun-04 18:00 306 0 gusting 4 13.9
2020-Jun-04 17:45 305 2 gusting 4 13.3
2020-Jun-04 17:31 269 2 gusting 5 13.3
2020-Jun-04 17:15 275 1 gusting 4 12.8
2020-Jun-04 17:00 304 2 gusting 6 12.2
2020-Jun-04 16:45 288 4 gusting 6 12.2
2020-Jun-04 16:30 299 3 gusting 6 12.2
2020-Jun-04 16:15 318 1 gusting 6 12.2
2020-Jun-04 16:00 290 3 gusting 9 12.2
2020-Jun-04 15:45 311 1 gusting 6 11.7
2020-Jun-04 15:30 313 3 gusting 6 11.7
2020-Jun-04 15:16 304 3 gusting 5 11.1
2020-Jun-04 15:15 281 2 gusting 5 11.1
2020-Jun-04 15:02 261 1 gusting 3 11.1
2020-Jun-04 14:46 263 1 gusting 3 10.6
2020-Jun-04 14:31 248 10.6
2020-Jun-04 14:16 251 0 gusting 2 10.0
2020-Jun-04 14:01 155 10.0
2020-Jun-04 13:46 119 0 gusting 2 10.0
2020-Jun-04 13:31 088 10.0
2020-Jun-04 13:16 088 9.4
2020-Jun-04 13:01 088 9.4
2020-Jun-04 12:46 088 9.4
2020-Jun-04 12:31 088 9.4
2020-Jun-04 12:16 088 9.4
2020-Jun-04 12:01 088 9.4
2020-Jun-04 11:46 088 9.4
2020-Jun-04 11:31 088 9.4
2020-Jun-04 11:16 088 9.4
2020-Jun-04 11:01 088 9.4
2020-Jun-04 10:45 088 10.0
2020-Jun-04 10:31 088 10.0
2020-Jun-04 10:16 088 10.0
2020-Jun-04 10:00 088 0 gusting 1 10.0
2020-Jun-04 09:46 088 10.0
2020-Jun-04 09:30 088 10.0
2020-Jun-04 09:16 088 10.0
2020-Jun-04 09:01 088 10.0
2020-Jun-04 08:45 088 10.0
2020-Jun-04 08:30 088 10.0
2020-Jun-04 08:15 088 10.0
2020-Jun-04 08:00 088 0 gusting 2 10.0
2020-Jun-04 07:45 145 0 gusting 1 10.6
2020-Jun-04 07:31 145 10.6
2020-Jun-04 07:15 145 10.6
2020-Jun-04 07:00 145 10.6
2020-Jun-04 06:45 145 10.6
2020-Jun-04 06:30 091 10.6
2020-Jun-04 06:15 091 10.6
2020-Jun-04 06:00 091 10.6
2020-Jun-04 05:45 091 11.1
2020-Jun-04 05:30 091 0 gusting 2 11.7
2020-Jun-04 05:16 090 0 gusting 2 11.7
2020-Jun-04 05:01 287 12.2
2020-Jun-04 04:46 299 2 gusting 6 12.2
2020-Jun-04 04:30 269 3 gusting 6 12.2
2020-Jun-04 04:15 267 2 gusting 6 12.2
2020-Jun-04 04:00 276 4 gusting 7 12.8
2020-Jun-04 03:45 281 5 gusting 8 13.3
2020-Jun-04 03:30 252 7 gusting 12 13.9
2020-Jun-04 03:15 251 6 gusting 12 14.4
2020-Jun-04 03:01 276 6 gusting 11 15.0
2020-Jun-04 02:45 297 5 gusting 8 15.6
2020-Jun-04 02:30 257 5 gusting 7 15.6
2020-Jun-04 02:15 267 4 gusting 10 16.1
2020-Jun-04 02:00 263 6 gusting 7 16.7
2020-Jun-04 01:45 240 3 gusting 9 16.1
2020-Jun-04 01:30 281 6 gusting 8 16.7
2020-Jun-04 01:15 270 5 gusting 9 16.7
2020-Jun-04 01:00 282 6 gusting 10 17.2
2020-Jun-04 00:45 292 6 gusting 13 17.2
2020-Jun-04 00:30 284 6 gusting 10 17.8
2020-Jun-04 00:15 261 6 gusting 9 17.8
2020-Jun-04 00:00 264 6 gusting 11 18.3
2020-Jun-03 23:45 275 5 gusting 9 17.8
2020-Jun-03 23:30 298 6 gusting 10 18.3
2020-Jun-03 23:15 303 6 gusting 12 17.8
2020-Jun-03 23:00 289 6 gusting 13 17.8
2020-Jun-03 22:45 279 6 gusting 10 17.8
2020-Jun-03 22:32 296 7 gusting 12 17.8
2020-Jun-03 22:16 262 6 gusting 13 17.8
2020-Jun-03 22:01 269 6 gusting 13 17.8
2020-Jun-03 21:46 298 9 gusting 11 17.8
2020-Jun-03 21:31 288 6 gusting 11 17.8
2020-Jun-03 21:30 285 7 gusting 11 17.8
2020-Jun-03 21:16 257 6 gusting 11 18.3
2020-Jun-03 21:02 277 7 gusting 11 18.3
2020-Jun-03 20:49 265 7 gusting 11 18.3
2020-Jun-03 20:32 273 6 gusting 13 18.9
2020-Jun-03 20:15 306 6 gusting 13 18.3
2020-Jun-03 20:02 296 5 gusting 11 18.3
2020-Jun-03 19:46 272 6 gusting 11 17.8
2020-Jun-03 19:31 240 6 gusting 12 17.8
2020-Jun-03 19:15 269 6 gusting 10 17.8
2020-Jun-03 19:01 281 3 gusting 7 17.2
2020-Jun-03 18:45 286 2 gusting 7 16.7
2020-Jun-03 18:32 245 4 gusting 7 16.1
2020-Jun-03 18:16 175 2 gusting 5 16.1
2020-Jun-03 18:00 321 1 gusting 6 15.6